Time,TemperatureF,DewpointF,PressureIn,WindDirection,WindDirectionDegrees,WindSpeedMPH,WindSpeedGustMPH,Humidity,HourlyPrecipIn,Conditions,Clouds,dailyrainin,SoftwareType,DateUTC
2013-08-30 00:08:00,68.9,64.0,30.02,East,100,0.0,3.0,83,0.00,,,0.00,weatherlink.com 1.10,2013-08-30 04:08:00,
2013-08-30 00:23:00,68.9,64.0,30.02,ESE,117,0.0,3.0,84,0.00,,,0.00,weatherlink.com 1.10,2013-08-30 04:23:00,
2013-08-30 00:38:00,68.9,64.0,30.02,ESE,123,1.0,1.0,85,0.00,,,0.00,weatherlink.com 1.10,2013-08-30 04:38:00,
2013-08-30 00:53:00,68.9,65.0,30.03,SE,129,0.0,3.0,86,0.00,,,0.00,weatherlink.com 1.10,2013-08-30 04:53:00,
2013-08-30 01:08:00,68.9,65.0,30.02,SW,232,0.0,1.0,86,0.00,,,0.00,weatherlink.com 1.10,2013-08-30 05:08:00,
2013-08-30 01:23:00,68.8,65.0,30.02,ESE,106,1.0,2.0,86,0.00,,,0.00,weatherlink.com 1.10,2013-08-30 05:23:00,
2013-08-30 01:38:00,68.6,64.0,30.01,ESE,115,0.0,2.0,86,0.00,,,0.00,weatherlink.com 1.10,2013-08-30 05:38:00,
2013-08-30 01:53:00,68.5,64.0,30.00,ESE,118,0.0,2.0,86,0.00,,,0.00,weatherlink.com 1.10,2013-08-30 05:53:00,
2013-08-30 02:09:00,68.3,64.0,30.00,ESE,105,0.0,5.0,86,0.00,,,0.00,weatherlink.com 1.10,2013-08-30 06:09:00,
2013-08-30 02:24:00,68.3,64.0,30.00,SE,140,0.0,3.0,86,0.00,,,0.00,weatherlink.com 1.10,2013-08-30 06:24:00,
2013-08-30 02:39:00,68.3,64.0,30.00,SSE,167,1.0,2.0,86,0.00,,,0.00,weatherlink.com 1.10,2013-08-30 06:39:00,
2013-08-30 02:54:00,68.2,64.0,30.00,SE,127,0.0,3.0,86,0.00,,,0.00,weatherlink.com 1.10,2013-08-30 06:54:00,
2013-08-30 03:09:00,68.1,64.0,29.99,ESE,120,4.0,4.0,87,0.00,,,0.00,weatherlink.com 1.10,2013-08-30 07:09:00,
2013-08-30 03:24:00,67.9,64.0,29.99,East,90,0.0,3.0,87,0.00,,,0.00,weatherlink.com 1.10,2013-08-30 07:24:00,
2013-08-30 03:39:00,67.8,64.0,30.00,WSW,248,0.0,2.0,87,0.00,,,0.00,weatherlink.com 1.10,2013-08-30 07:39:00,
2013-08-30 03:54:00,67.7,64.0,30.00,SE,143,0.0,1.0,87,0.00,,,0.00,weatherlink.com 1.10,2013-08-30 07:54:00,
2013-08-30 04:09:00,67.6,64.0,30.00,East,80,0.0,2.0,87,0.00,,,0.00,weatherlink.com 1.10,2013-08-30 08:09:00,
2013-08-30 04:24:00,67.5,64.0,29.99,SE,141,0.0,1.0,87,0.00,,,0.00,weatherlink.com 1.10,2013-08-30 08:24:00,
2013-08-30 04:39:00,67.5,64.0,29.99,SW,217,0.0,1.0,87,0.00,,,0.00,weatherlink.com 1.10,2013-08-30 08:39:00,
2013-08-30 04:54:00,67.5,64.0,29.99,East,86,2.0,2.0,88,0.00,,,0.00,weatherlink.com 1.10,2013-08-30 08:54:00,
2013-08-30 05:09:00,67.5,64.0,29.99,ESE,122,1.0,2.0,88,0.00,,,0.00,weatherlink.com 1.10,2013-08-30 09:09:00,
2013-08-30 05:24:00,67.4,64.0,29.99,SE,124,2.0,2.0,88,0.00,,,0.00,weatherlink.com 1.10,2013-08-30 09:24:00,
2013-08-30 05:39:00,67.5,64.0,29.99,East,101,0.0,1.0,88,0.00,,,0.00,weatherlink.com 1.10,2013-08-30 09:39:00,
2013-08-30 05:54:00,67.5,64.0,30.00,SSE,147,0.0,1.0,88,0.00,,,0.00,weatherlink.com 1.10,2013-08-30 09:54:00,
2013-08-30 06:09:00,67.7,64.0,30.00,SSE,160,0.0,1.0,88,0.00,,,0.00,weatherlink.com 1.10,2013-08-30 10:09:00,
2013-08-30 06:24:00,67.8,64.0,30.00,WSW,252,0.0,3.0,88,0.00,,,0.00,weatherlink.com 1.10,2013-08-30 10:24:00,
2013-08-30 06:39:00,68.0,64.0,30.00,WSW,252,0.0,2.0,87,0.00,,,0.00,weatherlink.com 1.10,2013-08-30 10:39:00,
2013-08-30 06:54:00,68.1,64.0,30.01,West,265,1.0,3.0,87,0.00,,,0.00,weatherlink.com 1.10,2013-08-30 10:54:00,
2013-08-30 07:09:00,68.3,64.0,30.01,South,169,2.0,5.0,87,0.00,,,0.00,weatherlink.com 1.10,2013-08-30 11:09:00,
2013-08-30 07:24:00,68.4,65.0,30.01,WSW,249,1.0,3.0,88,0.00,,,0.00,weatherlink.com 1.10,2013-08-30 11:24:00,
2013-08-30 07:39:00,68.6,65.0,30.01,SW,222,0.0,4.0,89,0.00,,,0.00,weatherlink.com 1.10,2013-08-30 11:39:00,
2013-08-30 07:54:00,68.3,65.0,30.01,SW,221,0.0,2.0,90,0.00,,,0.00,weatherlink.com 1.10,2013-08-30 11:54:00,
2013-08-30 08:09:00,68.3,66.0,30.01,WSW,248,0.0,1.0,91,0.00,,,0.00,weatherlink.com 1.10,2013-08-30 12:09:00,
2013-08-30 08:24:00,68.5,66.0,30.00,West,273,0.0,1.0,92,0.00,,,0.00,weatherlink.com 1.10,2013-08-30 12:24:00,
2013-08-30 08:39:00,68.7,66.0,30.01,SSW,194,0.0,1.0,92,0.00,,,0.00,weatherlink.com 1.10,2013-08-30 12:39:00,
2013-08-30 08:54:00,69.2,67.0,30.00,WSW,257,0.0,2.0,91,0.00,,,0.00,weatherlink.com 1.10,2013-08-30 12:54:00,
2013-08-30 09:09:00,70.2,66.0,30.00,WSW,245,0.0,7.0,86,0.00,,,0.00,weatherlink.com 1.10,2013-08-30 13:09:00,
2013-08-30 09:24:00,71.3,66.0,30.00,West,274,1.0,8.0,84,0.00,,,0.00,weatherlink.com 1.10,2013-08-30 13:24:00,
2013-08-30 09:39:00,71.4,66.0,30.00,WSW,256,1.0,7.0,83,0.00,,,0.00,weatherlink.com 1.10,2013-08-30 13:39:00,
2013-08-30 09:54:00,71.8,66.0,30.00,SW,218,5.0,8.0,82,0.00,,,0.00,weatherlink.com 1.10,2013-08-30 13:54:00,
2013-08-30 10:09:00,72.7,67.0,29.99,WNW,294,4.0,8.0,81,0.00,,,0.00,weatherlink.com 1.10,2013-08-30 14:09:00,
2013-08-30 10:24:00,73.5,67.0,29.99,West,269,4.0,7.0,79,0.00,,,0.00,weatherlink.com 1.10,2013-08-30 14:24:00,
2013-08-30 10:39:00,74.5,67.0,29.99,West,264,5.0,7.0,78,0.00,,,0.00,weatherlink.com 1.10,2013-08-30 14:39:00,
2013-08-30 10:54:00,75.7,68.0,29.98,WSW,242,2.0,9.0,76,0.00,,,0.00,weatherlink.com 1.10,2013-08-30 14:54:00,
2013-08-30 11:09:00,77.0,69.0,29.98,WSW,245,4.0,11.0,75,0.00,,,0.00,weatherlink.com 1.10,2013-08-30 15:09:00,
2013-08-30 11:24:00,77.7,68.0,29.97,WSW,242,5.0,8.0,72,0.00,,,0.00,weatherlink.com 1.10,2013-08-30 15:24:00,
2013-08-30 11:39:00,78.5,69.0,29.97,WSW,248,3.0,11.0,72,0.00,,,0.00,weatherlink.com 1.10,2013-08-30 15:39:00,
2013-08-30 11:54:00,78.7,69.0,29.97,WSW,256,3.0,7.0,71,0.00,,,0.00,weatherlink.com 1.10,2013-08-30 15:54:00,
2013-08-30 12:09:00,78.6,68.0,29.95,WSW,238,5.0,10.0,71,0.00,,,0.00,weatherlink.com 1.10,2013-08-30 16:09:00,
2013-08-30 12:25:00,79.4,69.0,29.95,SW,231,3.0,9.0,71,0.00,,,0.00,weatherlink.com 1.10,2013-08-30 16:25:00,
2013-08-30 12:40:00,79.7,69.0,29.94,ENE,78,2.0,7.0,70,0.00,,,0.00,weatherlink.com 1.10,2013-08-30 16:40:00,
2013-08-30 12:55:00,81.2,70.0,29.93,South,179,1.0,7.0,69,0.00,,,0.00,weatherlink.com 1.10,2013-08-30 16:55:00,
2013-08-30 13:10:00,81.4,70.0,29.93,West,278,1.0,5.0,68,0.00,,,0.00,weatherlink.com 1.10,2013-08-30 17:10:00,
2013-08-30 13:25:00,80.8,70.0,29.93,West,269,1.0,7.0,69,0.00,,,0.00,weatherlink.com 1.10,2013-08-30 17:25:00,
2013-08-30 13:40:00,81.0,69.0,29.92,SSW,193,3.0,7.0,68,0.00,,,0.00,weatherlink.com 1.10,2013-08-30 17:40:00,
2013-08-30 13:55:00,81.2,69.0,29.92,WNW,297,3.0,10.0,67,0.00,,,0.00,weatherlink.com 1.10,2013-08-30 17:55:00,
2013-08-30 14:10:00,81.9,69.0,29.91,SW,215,2.0,8.0,65,0.00,,,0.00,weatherlink.com 1.10,2013-08-30 18:10:00,
2013-08-30 14:25:00,83.2,70.0,29.91,SSW,211,1.0,10.0,64,0.00,,,0.00,weatherlink.com 1.10,2013-08-30 18:25:00,
2013-08-30 14:40:00,83.8,70.0,29.90,West,260,1.0,10.0,64,0.00,,,0.00,weatherlink.com 1.10,2013-08-30 18:40:00,
2013-08-30 14:55:00,82.7,70.0,29.90,South,186,2.0,8.0,66,0.00,,,0.00,weatherlink.com 1.10,2013-08-30 18:55:00,
2013-08-30 15:10:00,82.6,70.0,29.90,South,181,3.0,8.0,66,0.00,,,0.00,weatherlink.com 1.10,2013-08-30 19:10:00,
2013-08-30 15:25:00,84.0,71.0,29.89,West,263,3.0,6.0,65,0.00,,,0.00,weatherlink.com 1.10,2013-08-30 19:25:00,
2013-08-30 15:40:00,84.3,71.0,29.89,SW,233,1.0,6.0,64,0.00,,,0.00,weatherlink.com 1.10,2013-08-30 19:40:00,
2013-08-30 15:55:00,84.5,70.0,29.89,SE,143,1.0,7.0,61,0.00,,,0.00,weatherlink.com 1.10,2013-08-30 19:55:00,
2013-08-30 16:10:00,84.9,70.0,29.88,WSW,250,4.0,8.0,62,0.00,,,0.00,weatherlink.com 1.10,2013-08-30 20:10:00,
2013-08-30 16:25:00,84.1,71.0,29.88,WSW,248,1.0,5.0,64,0.00,,,0.00,weatherlink.com 1.10,2013-08-30 20:25:00,
2013-08-30 16:40:00,83.0,71.0,29.88,West,271,2.0,5.0,67,0.00,,,0.00,weatherlink.com 1.10,2013-08-30 20:40:00,
2013-08-30 16:55:00,82.6,71.0,29.88,West,262,1.0,5.0,68,0.00,,,0.00,weatherlink.com 1.10,2013-08-30 20:55:00,
2013-08-30 17:10:00,82.3,71.0,29.88,WSW,246,1.0,6.0,68,0.00,,,0.00,weatherlink.com 1.10,2013-08-30 21:10:00,
2013-08-30 17:25:00,82.7,71.0,29.88,West,276,2.0,4.0,67,0.00,,,0.00,weatherlink.com 1.10,2013-08-30 21:25:00,
2013-08-30 17:40:00,81.8,71.0,29.87,ESE,109,1.0,5.0,70,0.00,,,0.00,weatherlink.com 1.10,2013-08-30 21:40:00,
2013-08-30 17:55:00,81.4,71.0,29.87,WSW,255,0.0,3.0,71,0.00,,,0.00,weatherlink.com 1.10,2013-08-30 21:55:00,
2013-08-30 18:10:00,81.1,71.0,29.87,WSW,245,1.0,3.0,72,0.00,,,0.00,weatherlink.com 1.10,2013-08-30 22:10:00,
2013-08-30 18:25:00,80.1,71.0,29.86,West,262,1.0,4.0,74,0.00,,,0.00,weatherlink.com 1.10,2013-08-30 22:25:00,
2013-08-30 18:40:00,79.8,71.0,29.86,SW,215,1.0,4.0,75,0.00,,,0.00,weatherlink.com 1.10,2013-08-30 22:40:00,
2013-08-30 18:55:00,79.1,71.0,29.85,ESE,117,0.0,3.0,76,0.00,,,0.00,weatherlink.com 1.10,2013-08-30 22:55:00,
2013-08-30 19:10:00,78.4,71.0,29.85,ENE,75,1.0,1.0,78,0.00,,,0.00,weatherlink.com 1.10,2013-08-30 23:10:00,
2013-08-30 19:25:00,77.6,71.0,29.85,WSW,239,1.0,3.0,80,0.00,,,0.00,weatherlink.com 1.10,2013-08-30 23:25:00,
2013-08-30 19:40:00,76.9,71.0,29.86,WSW,255,2.0,5.0,81,0.00,,,0.00,weatherlink.com 1.10,2013-08-30 23:40:00,
2013-08-30 19:55:00,76.6,71.0,29.85,West,266,2.0,6.0,82,0.00,,,0.00,weatherlink.com 1.10,2013-08-30 23:55:00,
2013-08-30 20:10:00,76.5,71.0,29.86,SE,142,0.0,4.0,82,0.00,,,0.00,weatherlink.com 1.10,2013-08-31 00:10:00,
2013-08-30 20:25:00,76.3,71.0,29.86,SSW,203,2.0,3.0,83,0.00,,,0.00,weatherlink.com 1.10,2013-08-31 00:25:00,
2013-08-30 20:40:00,76.4,71.0,29.86,SW,231,4.0,6.0,82,0.00,,,0.00,weatherlink.com 1.10,2013-08-31 00:40:00,
2013-08-30 20:55:00,76.7,71.0,29.86,NW,307,2.0,5.0,81,0.00,,,0.00,weatherlink.com 1.10,2013-08-31 00:55:00,
2013-08-30 21:10:00,76.6,70.0,29.87,WSW,257,0.0,6.0,81,0.00,,,0.00,weatherlink.com 1.10,2013-08-31 01:10:00,
2013-08-30 21:25:00,76.4,70.0,29.87,West,279,2.0,7.0,81,0.00,,,0.00,weatherlink.com 1.10,2013-08-31 01:25:00,
2013-08-30 21:40:00,76.1,70.0,29.87,West,276,1.0,5.0,82,0.00,,,0.00,weatherlink.com 1.10,2013-08-31 01:40:00,
2013-08-30 21:55:00,75.9,70.0,29.87,WSW,240,3.0,9.0,82,0.00,,,0.00,weatherlink.com 1.10,2013-08-31 01:55:00,
2013-08-30 22:10:00,75.7,70.0,29.87,SSW,208,0.0,5.0,83,0.00,,,0.00,weatherlink.com 1.10,2013-08-31 02:10:00,
2013-08-30 22:25:00,75.3,70.0,29.88,WSW,243,3.0,6.0,83,0.00,,,0.00,weatherlink.com 1.10,2013-08-31 02:25:00,
2013-08-30 22:40:00,75.0,70.0,29.88,West,269,1.0,4.0,84,0.00,,,0.00,weatherlink.com 1.10,2013-08-31 02:40:00,
2013-08-30 22:55:00,74.7,70.0,29.88,West,274,3.0,7.0,85,0.00,,,0.00,weatherlink.com 1.10,2013-08-31 02:55:00,
2013-08-30 23:10:00,74.6,70.0,29.88,South,184,1.0,6.0,85,0.00,,,0.00,weatherlink.com 1.10,2013-08-31 03:10:00,
2013-08-30 23:25:00,74.4,70.0,29.88,West,259,6.0,7.0,86,0.00,,,0.00,weatherlink.com 1.10,2013-08-31 03:25:00,
2013-08-30 23:40:00,74.1,70.0,29.88,West,266,1.0,5.0,87,0.00,,,0.00,weatherlink.com 1.10,2013-08-31 03:40:00,
2013-08-30 23:55:00,74.0,70.0,29.87,WSW,256,1.0,5.0,87,0.00,,,0.00,weatherlink.com 1.10,2013-08-31 03:55:00,